Time,TemperatureF,DewpointF,PressureIn,WindDirection,WindDirectionDegrees,WindSpeedMPH,WindSpeedGustMPH,Humidity,HourlyPrecipIn,Conditions,Clouds,dailyrainin,SoftwareType,DateUTC
2013-02-23 00:00:00,25.6,25.1,29.81,North,349,0.9,3.5,98,0.00,RA,,0.00,WeatherDisplay:10.37,2013-02-23 06:00:00,
2013-02-23 00:05:00,25.4,24.9,29.81,SW,225,5.0,6.9,98,0.00,RA,,0.00,WeatherDisplay:10.37,2013-02-23 06:05:00,
2013-02-23 00:10:00,25.3,24.8,29.81,WSW,244,5.6,7.3,98,0.00,OVC,,0.00,WeatherDisplay:10.37,2013-02-23 06:10:00,
2013-02-23 00:15:00,25.5,25.0,29.81,WSW,252,2.5,4.6,98,0.00,OVC,,0.00,WeatherDisplay:10.37,2013-02-23 06:15:00,
2013-02-23 00:20:00,25.2,24.7,29.81,West,261,5.8,6.9,98,0.00,OVC,,0.00,WeatherDisplay:10.37,2013-02-23 06:20:00,
2013-02-23 00:26:00,25.0,24.5,29.81,SW,229,3.2,4.6,98,0.00,OVC,,0.00,WeatherDisplay:10.37,2013-02-23 06:26:00,
2013-02-23 00:31:00,25.1,24.9,29.81,West,268,2.7,3.5,99,0.00,OVC,,0.00,WeatherDisplay:10.37,2013-02-23 06:31:00,
2013-02-23 00:36:00,25.0,24.8,29.81,WNW,288,3.2,5.8,99,0.00,OVC,,0.00,WeatherDisplay:10.37,2013-02-23 06:36:00,
2013-02-23 00:41:00,24.9,24.7,29.81,West,264,4.9,8.1,99,0.00,OVC,,0.00,WeatherDisplay:10.37,2013-02-23 06:41:00,
2013-02-23 00:46:00,24.8,24.6,29.81,SW,228,3.6,5.0,99,0.00,OVC,,0.00,WeatherDisplay:10.37,2013-02-23 06:46:00,
2013-02-23 00:51:00,24.7,24.5,29.81,SW,226,5.5,10.5,99,0.00,OVC,,0.00,WeatherDisplay:10.37,2013-02-23 06:51:00,
2013-02-23 00:56:00,24.6,24.4,29.81,West,274,4.6,9.2,99,0.00,OVC,,0.00,WeatherDisplay:10.37,2013-02-23 06:56:00,
2013-02-23 01:01:00,24.6,24.4,29.81,South,177,3.6,6.9,99,0.00,OVC,,0.00,WeatherDisplay:10.37,2013-02-23 07:01:00,
2013-02-23 01:06:00,24.4,24.2,29.81,WSW,253,7.1,10.4,99,0.00,OVC,,0.00,WeatherDisplay:10.37,2013-02-23 07:06:00,
2013-02-23 01:11:00,24.4,24.2,29.81,SW,215,2.8,8.1,99,0.00,OVC,,0.00,WeatherDisplay:10.37,2013-02-23 07:11:00,
2013-02-23 01:16:00,24.4,24.2,29.81,SSW,208,3.2,5.8,99,0.00,OVC,,0.00,WeatherDisplay:10.37,2013-02-23 07:16:00,
2013-02-23 01:21:00,24.2,24.0,29.81,SW,228,7.0,9.2,99,0.00,OVC,,0.00,WeatherDisplay:10.37,2013-02-23 07:21:00,
2013-02-23 01:26:00,24.4,24.2,29.81,WNW,283,2.7,5.8,99,0.00,OVC,,0.00,WeatherDisplay:10.37,2013-02-23 07:26:00,
2013-02-23 01:31:00,24.0,23.8,29.81,WSW,250,5.4,6.9,99,0.00,OVC,,0.00,WeatherDisplay:10.37,2013-02-23 07:31:00,
2013-02-23 01:36:00,24.0,23.8,29.81,South,189,3.7,5.8,99,0.00,OVC,,0.00,WeatherDisplay:10.37,2013-02-23 07:36:00,
2013-02-23 01:41:00,23.9,23.7,29.81,SSW,213,6.1,8.1,99,0.00,OVC,,0.00,WeatherDisplay:10.37,2013-02-23 07:41:00,
2013-02-23 01:46:00,23.8,23.6,29.81,SW,226,8.0,12.7,99,0.00,OVC,,0.00,WeatherDisplay:10.37,2013-02-23 07:46:00,
2013-02-23 01:51:00,23.7,23.5,29.81,SW,232,4.3,7.6,99,0.00,OVC,,0.00,WeatherDisplay:10.37,2013-02-23 07:51:00,
2013-02-23 01:56:00,23.6,23.4,29.81,West,270,5.2,8.1,99,0.00,OVC,,0.00,WeatherDisplay:10.37,2013-02-23 07:56:00,
2013-02-23 02:01:00,23.6,23.4,29.81,SW,222,3.8,6.9,99,0.00,OVC,,0.00,WeatherDisplay:10.37,2013-02-23 08:01:00,
2013-02-23 02:06:00,23.4,23.2,29.81,SW,236,6.3,10.4,99,0.00,OVC,,0.00,WeatherDisplay:10.37,2013-02-23 08:06:00,
2013-02-23 02:11:00,23.5,23.3,29.81,WNW,291,4.2,8.1,99,0.00,OVC,,0.00,WeatherDisplay:10.37,2013-02-23 08:11:00,
2013-02-23 02:16:00,23.4,23.2,29.81,SW,218,4.7,6.9,99,0.00,OVC,,0.00,WeatherDisplay:10.37,2013-02-23 08:16:00,
2013-02-23 02:21:00,23.3,23.1,29.81,SW,236,5.3,9.2,99,0.00,OVC,,0.00,WeatherDisplay:10.37,2013-02-23 08:21:00,
2013-02-23 02:26:00,23.2,23.0,29.81,SSW,208,4.5,6.9,99,0.00,OVC,,0.00,WeatherDisplay:10.37,2013-02-23 08:26:00,
2013-02-23 02:31:00,23.2,23.0,29.81,WNW,287,4.7,8.1,99,0.00,OVC,,0.00,WeatherDisplay:10.37,2013-02-23 08:31:00,
2013-02-23 02:36:00,23.1,22.9,29.81,SSW,192,4.2,8.1,99,0.00,OVC,,0.00,WeatherDisplay:10.37,2013-02-23 08:36:00,
2013-02-23 02:41:00,23.1,22.9,29.81,SW,223,4.8,10.4,99,0.00,OVC,,0.00,WeatherDisplay:10.37,2013-02-23 08:41:00,
2013-02-23 02:46:00,22.7,22.5,29.81,South,180,8.8,11.5,99,0.00,OVC,,0.00,WeatherDisplay:10.37,2013-02-23 08:46:00,
2013-02-23 02:51:00,22.9,22.7,29.81,WSW,254,3.8,5.8,99,0.00,OVC,,0.00,WeatherDisplay:10.37,2013-02-23 08:51:00,
2013-02-23 02:56:00,22.7,22.5,29.81,WSW,237,6.3,9.2,99,0.00,OVC,,0.00,WeatherDisplay:10.37,2013-02-23 08:56:00,
2013-02-23 03:01:00,22.9,22.7,29.81,SW,225,4.7,8.1,99,0.00,OVC,,0.00,WeatherDisplay:10.37,2013-02-23 09:01:00,
2013-02-23 03:06:00,22.8,22.8,29.81,SSE,158,5.0,8.1,100,0.00,OVC,,0.00,WeatherDisplay:10.37,2013-02-23 09:06:00,
2013-02-23 03:11:00,22.7,22.7,29.81,West,271,3.8,6.9,100,0.00,OVC,,0.00,WeatherDisplay:10.37,2013-02-23 09:11:00,
2013-02-23 03:16:00,22.7,22.7,29.81,West,274,5.6,10.4,100,0.00,OVC,,0.00,WeatherDisplay:10.37,2013-02-23 09:16:00,
2013-02-23 03:21:00,22.7,22.7,29.81,WSW,256,5.8,8.3,100,0.00,OVC,,0.00,WeatherDisplay:10.37,2013-02-23 09:21:00,
2013-02-23 03:26:00,22.6,22.6,29.81,WNW,295,5.5,9.2,100,0.00,OVC,,0.00,WeatherDisplay:10.37,2013-02-23 09:26:00,
2013-02-23 03:31:00,22.6,22.6,29.81,SW,229,4.7,9.7,100,0.00,OVC,,0.00,WeatherDisplay:10.37,2013-02-23 09:31:00,
2013-02-23 03:36:00,22.5,22.5,29.81,SW,236,9.0,15.0,100,0.00,OVC,,0.00,WeatherDisplay:10.37,2013-02-23 09:36:00,
2013-02-23 03:41:00,22.5,22.5,29.81,West,274,6.9,10.4,100,0.00,OVC,,0.00,WeatherDisplay:10.37,2013-02-23 09:41:00,
2013-02-23 03:46:00,22.5,22.5,29.81,WNW,287,7.0,10.1,100,0.00,OVC,,0.00,WeatherDisplay:10.37,2013-02-23 09:46:00,
2013-02-23 03:51:00,22.3,22.3,29.81,West,266,7.1,12.7,100,0.00,OVC,,0.00,WeatherDisplay:10.37,2013-02-23 09:51:00,
2013-02-23 03:56:00,22.5,22.5,29.81,SSW,212,7.2,14.4,100,0.00,OVC,,0.00,WeatherDisplay:10.37,2013-02-23 09:56:00,
2013-02-23 04:01:00,22.3,22.3,29.81,SW,229,6.0,11.6,100,0.00,OVC,,0.00,WeatherDisplay:10.37,2013-02-23 10:01:00,
2013-02-23 04:06:00,22.3,22.3,29.81,SSW,204,7.5,11.5,100,0.00,OVC,,0.00,WeatherDisplay:10.37,2013-02-23 10:06:00,
2013-02-23 04:11:00,22.1,22.1,29.81,West,276,6.3,9.2,100,0.00,OVC,,0.00,WeatherDisplay:10.37,2013-02-23 10:11:00,
2013-02-23 04:16:00,22.1,22.1,29.81,West,274,5.5,9.4,100,0.00,OVC,,0.00,WeatherDisplay:10.37,2013-02-23 10:16:00,
2013-02-23 04:21:00,22.0,22.0,29.81,SW,228,8.0,11.5,100,0.00,OVC,,0.00,WeatherDisplay:10.37,2013-02-23 10:21:00,
2013-02-23 04:26:00,22.1,22.1,29.81,WSW,249,4.3,10.4,100,0.00,OVC,,0.00,WeatherDisplay:10.37,2013-02-23 10:26:00,
2013-02-23 04:31:00,22.0,22.0,29.81,WSW,252,4.9,10.4,100,0.00,OVC,,0.00,WeatherDisplay:10.37,2013-02-23 10:31:00,
2013-02-23 04:36:00,21.9,21.9,29.81,West,274,5.8,9.2,100,0.00,OVC,,0.00,WeatherDisplay:10.37,2013-02-23 10:36:00,
2013-02-23 04:41:00,22.1,22.1,29.81,SSE,156,5.0,10.4,100,0.00,OVC,,0.00,WeatherDisplay:10.37,2013-02-23 10:41:00,
2013-02-23 04:46:00,21.8,21.8,29.81,SW,222,6.7,10.4,100,0.00,OVC,,0.00,WeatherDisplay:10.37,2013-02-23 10:46:00,
2013-02-23 04:51:00,21.9,21.9,29.81,West,280,5.0,9.2,100,0.00,OVC,,0.00,WeatherDisplay:10.37,2013-02-23 10:51:00,
2013-02-23 04:56:00,22.1,22.1,29.81,West,268,4.8,6.9,100,0.00,OVC,,0.00,WeatherDisplay:10.37,2013-02-23 10:56:00,
2013-02-23 05:01:00,21.8,21.8,29.81,SW,222,4.0,8.1,100,0.00,OVC,,0.00,WeatherDisplay:10.37,2013-02-23 11:01:00,
2013-02-23 05:06:00,22.0,22.0,29.81,West,276,4.3,10.4,100,0.00,OVC,,0.00,WeatherDisplay:10.37,2013-02-23 11:06:00,
2013-02-23 05:11:00,21.8,21.8,29.81,WSW,246,5.6,8.1,100,0.00,OVC,,0.00,WeatherDisplay:10.37,2013-02-23 11:11:00,
2013-02-23 05:16:00,21.9,21.9,29.81,WSW,239,4.8,7.4,100,0.00,OVC,,0.00,WeatherDisplay:10.37,2013-02-23 11:16:00,
2013-02-23 05:21:00,21.8,21.8,29.82,SSW,205,4.8,9.2,100,0.00,OVC,,0.00,WeatherDisplay:10.37,2013-02-23 11:21:00,
2013-02-23 05:26:00,21.5,21.5,29.82,SSW,211,8.0,13.8,100,0.00,OVC,,0.00,WeatherDisplay:10.37,2013-02-23 11:26:00,
2013-02-23 05:31:00,21.5,21.5,29.82,West,277,6.3,9.2,100,0.00,OVC,,0.00,WeatherDisplay:10.37,2013-02-23 11:31:00,
2013-02-23 05:36:00,21.5,21.5,29.82,West,273,5.8,9.4,100,0.00,OVC,,0.00,WeatherDisplay:10.37,2013-02-23 11:36:00,
2013-02-23 05:41:00,21.6,21.6,29.82,WSW,257,8.6,11.5,100,0.00,OVC,,0.00,WeatherDisplay:10.37,2013-02-23 11:41:00,
2013-02-23 05:46:00,21.5,21.5,29.82,SW,228,3.7,6.9,100,0.00,OVC,,0.00,WeatherDisplay:10.37,2013-02-23 11:46:00,
2013-02-23 05:51:00,21.4,21.4,29.82,West,263,4.3,13.8,100,0.00,OVC,,0.00,WeatherDisplay:10.37,2013-02-23 11:51:00,
2013-02-23 05:56:00,21.6,21.6,29.82,West,281,0.8,7.3,100,0.00,OVC,,0.00,WeatherDisplay:10.37,2013-02-23 11:56:00,
2013-02-23 06:01:00,21.7,21.7,29.83,SW,226,5.4,8.3,100,0.00,OVC,,0.00,WeatherDisplay:10.37,2013-02-23 12:01:00,
2013-02-23 06:06:00,21.5,21.5,29.83,SW,218,4.9,10.4,100,0.00,OVC,,0.00,WeatherDisplay:10.37,2013-02-23 12:06:00,
2013-02-23 06:11:00,21.6,21.6,29.83,WSW,254,2.7,4.6,100,0.00,OVC,,0.00,WeatherDisplay:10.37,2013-02-23 12:11:00,
2013-02-23 06:16:00,21.7,21.7,29.83,SW,220,3.1,4.7,100,0.00,OVC,,0.00,WeatherDisplay:10.37,2013-02-23 12:16:00,
2013-02-23 06:21:00,21.5,21.5,29.83,West,266,5.6,8.1,100,0.00,OVC,,0.00,WeatherDisplay:10.37,2013-02-23 12:21:00,
2013-02-23 06:26:00,21.4,21.4,29.83,WSW,244,5.5,9.2,100,0.00,OVC,,0.00,WeatherDisplay:10.37,2013-02-23 12:26:00,
2013-02-23 06:31:00,21.5,21.5,29.83,West,270,5.1,9.2,100,0.00,OVC,,0.00,WeatherDisplay:10.37,2013-02-23 12:31:00,
2013-02-23 06:36:00,21.1,21.1,29.84,West,264,6.9,10.4,100,0.00,OVC,,0.00,WeatherDisplay:10.37,2013-02-23 12:36:00,
2013-02-23 06:41:00,21.4,21.4,29.84,WSW,242,5.3,8.1,100,0.00,OVC,,0.00,WeatherDisplay:10.37,2013-02-23 12:41:00,
2013-02-23 06:46:00,21.4,21.4,29.83,West,264,5.7,8.1,100,0.00,OVC,,0.00,WeatherDisplay:10.37,2013-02-23 12:46:00,
2013-02-23 06:51:00,21.4,21.4,29.84,SW,223,5.0,8.1,100,0.00,OVC,,0.00,WeatherDisplay:10.37,2013-02-23 12:51:00,
2013-02-23 06:56:00,21.2,21.2,29.84,NW,309,4.4,6.9,100,0.00,OVC,,0.00,WeatherDisplay:10.37,2013-02-23 12:56:00,
2013-02-23 07:01:00,21.2,21.2,29.84,WSW,239,4.7,6.9,100,0.00,-SN,,0.00,WeatherDisplay:10.37,2013-02-23 13:01:00,
2013-02-23 07:06:00,21.3,21.3,29.84,WNW,297,7.2,10.4,100,0.00,-SN,,0.00,WeatherDisplay:10.37,2013-02-23 13:06:00,
2013-02-23 07:11:00,21.3,21.3,29.83,SSW,195,4.8,7.9,100,0.00,-SN,,0.00,WeatherDisplay:10.37,2013-02-23 13:11:00,
2013-02-23 07:16:00,21.4,21.4,29.83,WSW,246,3.5,5.8,100,0.00,-SN,,0.00,WeatherDisplay:10.37,2013-02-23 13:16:00,
2013-02-23 07:21:00,21.2,21.2,29.83,WSW,250,5.1,8.1,100,0.00,-SN,,0.00,WeatherDisplay:10.37,2013-02-23 13:21:00,
2013-02-23 07:26:00,21.4,21.4,29.83,WSW,256,2.9,4.6,100,0.00,-SN,,0.00,WeatherDisplay:10.37,2013-02-23 13:26:00,
2013-02-23 07:31:00,21.4,21.4,29.83,SW,223,0.0,0.0,100,0.00,-SN,,0.00,WeatherDisplay:10.37,2013-02-23 13:31:00,
2013-02-23 07:36:00,21.5,21.5,29.83,SE,141,1.6,2.3,100,0.00,-SN,,0.00,WeatherDisplay:10.37,2013-02-23 13:36:00,
2013-02-23 07:41:00,21.6,21.6,29.83,WNW,288,3.0,4.6,100,0.00,-SN,,0.00,WeatherDisplay:10.37,2013-02-23 13:41:00,
2013-02-23 07:46:00,21.5,21.5,29.83,SW,216,1.7,4.6,100,0.00,-SN,,0.00,WeatherDisplay:10.37,2013-02-23 13:46:00,
2013-02-23 07:51:00,21.5,21.5,29.84,West,266,1.7,7.5,100,0.00,-SN,,0.00,WeatherDisplay:10.37,2013-02-23 13:51:00,
2013-02-23 07:56:00,21.3,21.3,29.84,WNW,294,5.8,9.2,100,0.00,-SN,,0.00,WeatherDisplay:10.37,2013-02-23 13:56:00,
2013-02-23 08:01:00,21.3,21.3,29.84,WSW,254,3.7,6.0,100,0.00,-SN,,0.00,WeatherDisplay:10.37,2013-02-23 14:01:00,
2013-02-23 08:06:00,21.5,21.5,29.84,SW,220,4.1,6.9,100,0.00,-SN,,0.00,WeatherDisplay:10.37,2013-02-23 14:06:00,
2013-02-23 08:11:00,21.5,21.5,29.84,NW,305,4.9,8.1,100,0.00,-SN,,0.00,WeatherDisplay:10.37,2013-02-23 14:11:00,
2013-02-23 08:16:00,21.5,21.5,29.84,WNW,292,4.6,6.9,100,0.00,-SN,,0.00,WeatherDisplay:10.37,2013-02-23 14:16:00,
2013-02-23 08:21:00,21.5,21.5,29.84,WSW,239,5.2,8.1,100,0.00,-SN,,0.00,WeatherDisplay:10.37,2013-02-23 14:21:00,
2013-02-23 08:26:00,21.5,21.5,29.84,WSW,237,4.0,5.8,100,0.00,-SN,,0.00,WeatherDisplay:10.37,2013-02-23 14:26:00,
2013-02-23 08:31:00,21.4,21.4,29.84,SW,225,4.0,8.4,100,0.00,-SN,,0.00,WeatherDisplay:10.37,2013-02-23 14:31:00,
2013-02-23 08:36:00,21.6,21.6,29.84,SW,222,4.7,9.2,100,0.00,-SN,,0.00,WeatherDisplay:10.37,2013-02-23 14:36:00,
2013-02-23 08:41:00,21.6,21.6,29.84,WSW,250,7.1,9.2,100,0.00,-SN,,0.00,WeatherDisplay:10.37,2013-02-23 14:41:00,
2013-02-23 08:46:00,21.6,21.6,29.84,SSW,211,5.2,8.1,100,0.00,-SN,,0.00,WeatherDisplay:10.37,2013-02-23 14:46:00,
2013-02-23 08:51:00,21.7,21.7,29.84,SSW,212,5.2,10.4,100,0.00,-SN,,0.00,WeatherDisplay:10.37,2013-02-23 14:51:00,
2013-02-23 08:56:00,21.7,21.7,29.84,WSW,247,3.8,6.9,100,0.00,-SN,,0.00,WeatherDisplay:10.37,2013-02-23 14:56:00,
2013-02-23 09:01:00,21.8,21.6,29.84,WSW,257,6.1,9.2,99,0.00,-SN,,0.00,WeatherDisplay:10.37,2013-02-23 15:01:00,
2013-02-23 09:06:00,21.8,21.3,29.84,SW,226,2.4,9.2,98,0.00,-SN,,0.00,WeatherDisplay:10.37,2013-02-23 15:06:00,
2013-02-23 09:11:00,22.5,22.3,29.84,SW,215,3.3,5.8,99,0.00,-SN,,0.00,WeatherDisplay:10.37,2013-02-23 15:11:00,
2013-02-23 09:16:00,22.6,22.1,29.84,WNW,302,1.4,4.6,98,0.00,-SN,,0.00,WeatherDisplay:10.37,2013-02-23 15:16:00,
2013-02-23 09:21:00,22.5,21.8,29.84,West,259,3.5,5.8,97,0.00,-SN,,0.00,WeatherDisplay:10.37,2013-02-23 15:21:00,
2013-02-23 09:26:00,22.7,21.7,29.84,West,261,2.7,4.6,96,0.00,-SN,,0.00,WeatherDisplay:10.37,2013-02-23 15:26:00,
2013-02-23 09:31:00,23.1,21.9,29.84,WSW,253,6.2,9.2,95,0.00,-SN,,0.00,WeatherDisplay:10.37,2013-02-23 15:31:00,
2013-02-23 09:36:00,23.7,22.5,29.84,North,6,5.1,5.1,95,0.00,-SN,,0.00,WeatherDisplay:10.37,2013-02-23 15:36:00,
2013-02-23 09:41:00,23.4,21.7,29.83,WSW,254,3.3,6.9,93,0.00,-SN,,0.00,WeatherDisplay:10.37,2013-02-23 15:41:00,
2013-02-23 09:46:00,23.5,21.5,29.83,West,280,5.2,8.1,92,0.00,-SN,,0.00,WeatherDisplay:10.37,2013-02-23 15:46:00,
2013-02-23 09:51:00,23.3,21.1,29.84,West,260,4.9,8.1,91,0.00,-SN,,0.00,WeatherDisplay:10.37,2013-02-23 15:51:00,
2013-02-23 09:56:00,24.0,22.3,29.84,WSW,253,3.8,7.3,93,0.00,-SN,,0.00,WeatherDisplay:10.37,2013-02-23 15:56:00,
2013-02-23 10:01:00,24.2,22.0,29.84,WSW,254,3.6,6.9,91,0.00,-SN,,0.00,WeatherDisplay:10.37,2013-02-23 16:01:00,
2013-02-23 10:06:00,24.8,22.3,29.84,West,274,4.3,9.2,90,0.00,-SN,,0.00,WeatherDisplay:10.37,2013-02-23 16:06:00,
2013-02-23 10:11:00,25.1,22.0,29.84,SSW,198,6.8,11.5,88,0.00,-SN,,0.00,WeatherDisplay:10.37,2013-02-23 16:11:00,
2013-02-23 10:16:00,24.9,21.8,29.84,WSW,253,4.5,8.1,88,0.00,-SN,,0.00,WeatherDisplay:10.37,2013-02-23 16:16:00,
2013-02-23 10:21:00,24.4,21.1,29.84,West,263,7.8,10.4,87,0.00,-SN,,0.00,WeatherDisplay:10.37,2013-02-23 16:21:00,
2013-02-23 10:26:00,24.6,21.6,29.84,SSW,202,5.6,10.8,88,0.00,-SN,,0.00,WeatherDisplay:10.37,2013-02-23 16:26:00,
2013-02-23 10:31:00,24.9,21.8,29.84,WSW,244,4.7,10.4,88,0.00,-SN,,0.00,WeatherDisplay:10.37,2013-02-23 16:31:00,
2013-02-23 10:36:00,25.0,21.7,29.84,WSW,243,7.1,9.2,87,0.00,-SN,,0.00,WeatherDisplay:10.37,2013-02-23 16:36:00,
2013-02-23 10:41:00,24.9,21.3,29.85,SSW,213,5.0,8.1,86,0.00,-SN,,0.00,WeatherDisplay:10.37,2013-02-23 16:41:00,
2013-02-23 10:46:00,24.4,20.8,29.84,SW,236,5.0,9.4,86,0.00,-SN,,0.00,WeatherDisplay:10.37,2013-02-23 16:46:00,
2013-02-23 10:51:00,24.8,21.8,29.84,WSW,254,4.8,8.1,88,0.00,-SN,,0.00,WeatherDisplay:10.37,2013-02-23 16:51:00,
2013-02-23 10:56:00,25.8,22.2,29.84,WNW,292,3.6,6.0,86,0.00,-SN,,0.00,WeatherDisplay:10.37,2013-02-23 16:56:00,
2013-02-23 11:01:00,26.3,22.1,29.84,SSW,199,4.6,11.3,84,0.00,OVC,,0.00,WeatherDisplay:10.37,2013-02-23 17:01:00,
2013-02-23 11:06:00,26.1,21.6,29.84,SSW,209,5.1,9.2,83,0.00,OVC,,0.00,WeatherDisplay:10.37,2013-02-23 17:06:00,
2013-02-23 11:11:00,26.9,22.1,29.84,SSW,211,5.8,10.8,82,0.00,OVC,,0.00,WeatherDisplay:10.37,2013-02-23 17:11:00,
2013-02-23 11:16:00,27.1,21.7,29.84,SSW,211,6.6,9.2,80,0.00,OVC,,0.00,WeatherDisplay:10.37,2013-02-23 17:16:00,
2013-02-23 11:21:00,26.7,21.4,29.84,SW,225,9.3,11.5,80,0.00,OVC,,0.00,WeatherDisplay:10.37,2013-02-23 17:21:00,
2013-02-23 11:26:00,27.0,21.7,29.84,SW,218,6.8,10.4,80,0.00,OVC,,0.00,WeatherDisplay:10.37,2013-02-23 17:26:00,
2013-02-23 11:31:00,27.1,21.7,29.84,SSW,213,6.4,9.3,80,0.00,OVC,,0.00,WeatherDisplay:10.37,2013-02-23 17:31:00,
2013-02-23 11:36:00,27.2,21.8,29.85,SW,230,5.8,9.3,80,0.00,OVC,,0.00,WeatherDisplay:10.37,2013-02-23 17:36:00,
2013-02-23 11:41:00,27.3,21.9,29.84,SSW,211,8.9,16.1,80,0.00,OVC,,0.00,WeatherDisplay:10.37,2013-02-23 17:41:00,
2013-02-23 11:47:00,27.3,21.6,29.85,NW,321,4.0,8.1,79,0.00,OVC,,0.00,WeatherDisplay:10.37,2013-02-23 17:47:00,
2013-02-23 11:52:00,26.5,20.6,29.84,SW,235,6.3,10.4,78,0.00,OVC,,0.00,WeatherDisplay:10.37,2013-02-23 17:52:00,
2013-02-23 11:57:00,25.9,20.6,29.84,WNW,295,7.6,12.7,80,0.00,OVC,,0.00,WeatherDisplay:10.37,2013-02-23 17:57:00,
2013-02-23 12:02:00,26.0,21.0,29.84,South,184,9.2,17.3,81,0.00,OVC,,0.00,WeatherDisplay:10.37,2013-02-23 18:02:00,
2013-02-23 12:07:00,26.7,21.7,29.84,SSW,212,7.6,12.7,81,0.00,OVC,,0.00,WeatherDisplay:10.37,2013-02-23 18:07:00,
2013-02-23 12:12:00,27.2,21.5,29.84,SW,228,7.4,10.4,79,0.00,OVC,,0.00,WeatherDisplay:10.37,2013-02-23 18:12:00,
2013-02-23 12:17:00,27.7,21.1,29.84,South,171,4.8,9.2,76,0.00,OVC,,0.00,WeatherDisplay:10.37,2013-02-23 18:17:00,
2013-02-23 12:22:00,26.5,20.3,29.84,SW,219,7.4,13.8,77,0.00,OVC,,0.00,WeatherDisplay:10.37,2013-02-23 18:22:00,
2013-02-23 12:27:00,27.1,21.2,29.84,SW,220,6.4,11.5,78,0.00,OVC,,0.00,WeatherDisplay:10.37,2013-02-23 18:27:00,
2013-02-23 12:32:00,26.8,20.6,29.84,South,184,10.2,16.1,77,0.00,OVC,,0.00,WeatherDisplay:10.37,2013-02-23 18:32:00,
2013-02-23 12:37:00,27.6,21.9,29.84,WSW,243,6.4,11.5,79,0.00,OVC,,0.00,WeatherDisplay:10.37,2013-02-23 18:37:00,
2013-02-23 12:42:00,26.9,20.7,29.83,SW,223,8.4,13.8,77,0.00,OVC,,0.00,WeatherDisplay:10.37,2013-02-23 18:42:00,
2013-02-23 12:47:00,26.5,20.3,29.83,South,181,8.0,11.5,77,0.00,OVC,,0.00,WeatherDisplay:10.37,2013-02-23 18:47:00,
2013-02-23 12:52:00,27.1,21.2,29.83,SW,233,4.3,7.4,78,0.00,OVC,,0.00,WeatherDisplay:10.37,2013-02-23 18:52:00,
2013-02-23 12:57:00,26.5,20.0,29.83,SW,232,7.3,10.4,76,0.00,OVC,,0.00,WeatherDisplay:10.37,2013-02-23 18:57:00,
2013-02-23 13:02:00,26.9,21.0,29.83,West,267,4.5,10.4,78,0.00,BKN,,0.00,WeatherDisplay:10.37,2013-02-23 19:02:00,
2013-02-23 13:07:00,26.9,21.0,29.83,West,264,5.7,11.5,78,0.00,BKN,,0.00,WeatherDisplay:10.37,2013-02-23 19:07:00,
2013-02-23 13:12:00,26.5,20.3,29.83,SSW,205,7.5,12.7,77,0.00,BKN,,0.00,WeatherDisplay:10.37,2013-02-23 19:12:00,
2013-02-23 13:17:00,26.7,20.8,29.83,SSW,194,8.3,10.4,78,0.00,BKN,,0.00,WeatherDisplay:10.37,2013-02-23 19:17:00,
2013-02-23 13:22:00,27.3,21.0,29.83,West,260,5.3,11.5,77,0.00,BKN,,0.00,WeatherDisplay:10.37,2013-02-23 19:22:00,
2013-02-23 13:27:00,26.6,19.7,29.83,WNW,290,9.0,15.0,75,0.00,BKN,,0.00,WeatherDisplay:10.37,2013-02-23 19:27:00,
2013-02-23 13:32:00,27.1,21.2,29.83,SSW,202,5.5,10.1,78,0.00,BKN,,0.00,WeatherDisplay:10.37,2013-02-23 19:32:00,
2013-02-23 13:37:00,27.4,21.1,29.83,SSW,198,5.0,9.2,77,0.00,BKN,,0.00,WeatherDisplay:10.37,2013-02-23 19:37:00,
2013-02-23 13:42:00,26.8,20.2,29.83,West,270,7.1,16.1,76,0.00,BKN,,0.00,WeatherDisplay:10.37,2013-02-23 19:42:00,
2013-02-23 13:47:00,27.6,21.6,29.83,SSW,211,3.8,8.4,78,0.00,BKN,,0.00,WeatherDisplay:10.37,2013-02-23 19:47:00,
2013-02-23 13:52:00,26.9,19.7,29.83,SW,225,4.7,10.4,74,0.00,BKN,,0.00,WeatherDisplay:10.37,2013-02-23 19:52:00,
2013-02-23 13:57:00,27.4,21.1,29.82,South,184,5.4,11.5,77,0.00,BKN,,0.00,WeatherDisplay:10.37,2013-02-23 19:57:00,
2013-02-23 14:02:00,27.7,21.1,29.82,South,189,3.4,6.9,76,0.00,BKN,,0.00,WeatherDisplay:10.37,2013-02-23 20:02:00,
2013-02-23 14:07:00,27.7,20.8,29.82,SSW,209,6.9,10.4,75,0.00,BKN,,0.00,WeatherDisplay:10.37,2013-02-23 20:07:00,
2013-02-23 14:12:00,27.4,20.2,29.82,West,271,5.7,9.2,74,0.00,BKN,,0.00,WeatherDisplay:10.37,2013-02-23 20:12:00,
2013-02-23 14:17:00,27.7,20.8,29.82,SSW,212,3.3,8.1,75,0.00,BKN,,0.00,WeatherDisplay:10.37,2013-02-23 20:17:00,
2013-02-23 14:22:00,28.2,21.3,29.82,West,268,4.3,6.9,75,0.00,BKN,,0.00,WeatherDisplay:10.37,2013-02-23 20:22:00,
2013-02-23 14:27:00,28.7,21.5,29.82,SW,219,3.1,6.9,74,0.00,BKN,,0.00,WeatherDisplay:10.37,2013-02-23 20:27:00,
2013-02-23 14:32:00,28.0,19.8,29.82,WSW,250,7.8,11.5,71,0.00,BKN,,0.00,WeatherDisplay:10.37,2013-02-23 20:32:00,
2013-02-23 14:37:00,28.5,20.9,29.82,WSW,242,5.4,8.0,73,0.00,BKN,,0.00,WeatherDisplay:10.37,2013-02-23 20:37:00,
2013-02-23 14:42:00,27.9,20.0,29.82,WNW,301,3.7,8.1,72,0.00,BKN,,0.00,WeatherDisplay:10.37,2013-02-23 20:42:00,
2013-02-23 14:47:00,27.5,19.7,29.82,WSW,256,4.1,13.8,72,0.00,BKN,,0.00,WeatherDisplay:10.37,2013-02-23 20:47:00,
2013-02-23 14:52:00,27.6,20.1,29.82,SSW,192,8.4,11.5,73,0.00,BKN,,0.00,WeatherDisplay:10.37,2013-02-23 20:52:00,
2013-02-23 14:57:00,27.7,20.2,29.83,South,189,4.2,8.1,73,0.00,BKN,,0.00,WeatherDisplay:10.37,2013-02-23 20:57:00,
2013-02-23 15:02:00,28.2,20.7,29.82,NW,305,2.4,5.8,73,0.00,BKN,,0.00,WeatherDisplay:10.37,2013-02-23 21:02:00,
2013-02-23 15:07:00,27.6,20.1,29.82,West,270,4.2,9.2,73,0.00,BKN,,0.00,WeatherDisplay:10.37,2013-02-23 21:07:00,
2013-02-23 15:12:00,27.8,20.3,29.83,SSW,194,7.1,9.4,73,0.00,BKN,,0.00,WeatherDisplay:10.37,2013-02-23 21:12:00,
2013-02-23 15:17:00,27.9,20.4,29.83,West,274,3.9,8.1,73,0.00,BKN,,0.00,WeatherDisplay:10.37,2013-02-23 21:17:00,
2013-02-23 15:22:00,27.7,20.5,29.83,SSW,212,6.2,9.2,74,0.00,BKN,,0.00,WeatherDisplay:10.37,2013-02-23 21:22:00,
2013-02-23 15:27:00,27.6,20.7,29.83,SW,220,4.2,6.4,75,0.00,BKN,,0.00,WeatherDisplay:10.37,2013-02-23 21:27:00,
2013-02-23 15:32:00,27.5,20.6,29.83,SW,226,6.4,10.4,75,0.00,BKN,,0.00,WeatherDisplay:10.37,2013-02-23 21:32:00,
2013-02-23 15:37:00,27.4,20.5,29.83,WNW,287,4.6,6.9,75,0.00,BKN,,0.00,WeatherDisplay:10.37,2013-02-23 21:37:00,
2013-02-23 15:42:00,27.3,20.4,29.83,WNW,291,6.7,8.6,75,0.00,BKN,,0.00,WeatherDisplay:10.37,2013-02-23 21:42:00,
2013-02-23 15:47:00,27.3,20.4,29.83,WSW,249,4.0,7.6,75,0.00,BKN,,0.00,WeatherDisplay:10.37,2013-02-23 21:47:00,
2013-02-23 15:52:00,26.8,19.9,29.83,West,273,6.7,12.7,75,0.00,BKN,,0.00,WeatherDisplay:10.37,2013-02-23 21:52:00,
2013-02-23 15:57:00,26.3,19.8,29.83,West,264,5.7,9.3,76,0.00,BKN,,0.00,WeatherDisplay:10.37,2013-02-23 21:57:00,
2013-02-23 16:02:00,26.6,20.4,29.83,SSW,208,3.9,5.2,77,0.00,OVC,,0.00,WeatherDisplay:10.37,2013-02-23 22:02:00,
2013-02-23 16:07:00,26.6,20.4,29.83,WNW,285,4.9,9.2,77,0.00,OVC,,0.00,WeatherDisplay:10.37,2013-02-23 22:07:00,
2013-02-23 16:12:00,26.4,20.2,29.83,South,171,6.8,8.1,77,0.00,OVC,,0.00,WeatherDisplay:10.37,2013-02-23 22:12:00,
2013-02-23 16:17:00,26.3,20.4,29.83,South,184,4.6,9.2,78,0.00,OVC,,0.00,WeatherDisplay:10.37,2013-02-23 22:17:00,
2013-02-23 16:22:00,26.5,20.6,29.83,WSW,257,3.4,8.1,78,0.00,OVC,,0.00,WeatherDisplay:10.37,2013-02-23 22:22:00,
2013-02-23 16:27:00,26.2,20.3,29.84,WSW,246,4.0,9.2,78,0.00,OVC,,0.00,WeatherDisplay:10.37,2013-02-23 22:27:00,
2013-02-23 16:32:00,25.9,20.0,29.84,West,266,6.6,9.2,78,0.00,OVC,,0.00,WeatherDisplay:10.37,2013-02-23 22:32:00,
2013-02-23 16:37:00,25.8,19.9,29.84,WSW,242,6.4,10.4,78,0.00,OVC,,0.00,WeatherDisplay:10.37,2013-02-23 22:37:00,
2013-02-23 16:42:00,25.8,20.2,29.84,SW,233,2.9,9.2,79,0.00,OVC,,0.00,WeatherDisplay:10.37,2013-02-23 22:42:00,
2013-02-23 16:47:00,25.9,20.3,29.84,West,281,5.1,9.2,79,0.00,OVC,,0.00,WeatherDisplay:10.37,2013-02-23 22:47:00,
2013-02-23 16:52:00,25.9,20.6,29.84,SW,225,3.4,6.1,80,0.00,OVC,,0.00,WeatherDisplay:10.37,2013-02-23 22:52:00,
2013-02-23 16:57:00,25.9,20.3,29.84,SW,218,5.6,9.2,79,0.00,OVC,,0.00,WeatherDisplay:10.37,2013-02-23 22:57:00,
2013-02-23 17:02:00,25.9,20.6,29.84,SSW,198,4.7,9.2,80,0.00,OVC,,0.00,WeatherDisplay:10.37,2013-02-23 23:02:00,
2013-02-23 17:07:00,25.6,20.3,29.85,SW,229,4.5,7.9,80,0.00,OVC,,0.00,WeatherDisplay:10.37,2013-02-23 23:07:00,
2013-02-23 17:12:00,25.6,20.3,29.84,WSW,252,5.0,9.2,80,0.00,OVC,,0.00,WeatherDisplay:10.37,2013-02-23 23:12:00,
2013-02-23 17:17:00,25.6,20.3,29.84,WSW,256,5.2,7.2,80,0.00,OVC,,0.00,WeatherDisplay:10.37,2013-02-23 23:17:00,
2013-02-23 17:22:00,25.7,20.4,29.85,WSW,240,4.0,5.8,80,0.00,OVC,,0.00,WeatherDisplay:10.37,2013-02-23 23:22:00,
2013-02-23 17:27:00,25.6,20.6,29.85,WSW,246,4.1,5.8,81,0.00,OVC,,0.00,WeatherDisplay:10.37,2013-02-23 23:27:00,
2013-02-23 17:32:00,25.6,20.9,29.85,West,276,4.0,5.8,82,0.00,OVC,,0.00,WeatherDisplay:10.37,2013-02-23 23:32:00,
2013-02-23 17:37:00,25.4,20.7,29.85,WSW,239,4.5,6.3,82,0.00,OVC,,0.00,WeatherDisplay:10.37,2013-02-23 23:37:00,
2013-02-23 17:42:00,25.4,21.0,29.85,SSE,151,2.4,4.6,83,0.00,OVC,,0.00,WeatherDisplay:10.37,2013-02-23 23:42:00,
2013-02-23 17:47:00,25.1,20.9,29.85,WSW,252,5.5,6.9,84,0.00,OVC,,0.00,WeatherDisplay:10.37,2013-02-23 23:47:00,
2013-02-23 17:52:00,25.0,20.8,29.86,South,191,2.8,6.9,84,0.00,OVC,,0.00,WeatherDisplay:10.37,2013-02-23 23:52:00,
2013-02-23 17:57:00,25.0,20.8,29.86,SW,226,4.8,8.1,84,0.00,OVC,,0.00,WeatherDisplay:10.37,2013-02-23 23:57:00,
2013-02-23 18:02:00,24.9,21.0,29.86,SW,218,4.7,6.9,85,0.00,OVC,,0.00,WeatherDisplay:10.37,2013-02-24 00:02:00,
2013-02-23 18:07:00,24.9,21.0,29.86,SW,232,3.9,5.8,85,0.00,OVC,,0.00,WeatherDisplay:10.37,2013-02-24 00:07:00,
2013-02-23 18:12:00,24.7,20.8,29.87,SSW,196,3.0,8.1,85,0.00,OVC,,0.00,WeatherDisplay:10.37,2013-02-24 00:12:00,
2013-02-23 18:17:00,24.4,20.5,29.86,WSW,246,7.1,7.1,85,0.00,OVC,,0.00,WeatherDisplay:10.37,2013-02-24 00:17:00,
2013-02-23 18:22:00,24.5,20.9,29.86,WSW,253,4.2,5.4,86,0.00,OVC,,0.00,WeatherDisplay:10.37,2013-02-24 00:22:00,
2013-02-23 18:27:00,24.5,20.9,29.86,WSW,237,4.3,6.9,86,0.00,OVC,,0.00,WeatherDisplay:10.37,2013-02-24 00:27:00,
2013-02-23 18:32:00,24.4,20.8,29.87,SSW,213,2.6,5.8,86,0.00,OVC,,0.00,WeatherDisplay:10.37,2013-02-24 00:32:00,
2013-02-23 18:37:00,24.2,20.6,29.87,SW,236,4.5,6.5,86,0.00,OVC,,0.00,WeatherDisplay:10.37,2013-02-24 00:37:00,
2013-02-23 18:42:00,24.0,20.4,29.87,SW,219,5.7,9.2,86,0.00,OVC,,0.00,WeatherDisplay:10.37,2013-02-24 00:42:00,
2013-02-23 18:47:00,24.2,20.6,29.87,West,277,4.1,5.8,86,0.00,OVC,,0.00,WeatherDisplay:10.37,2013-02-24 00:47:00,
2013-02-23 18:52:00,24.1,20.5,29.87,South,170,3.5,5.8,86,0.00,OVC,,0.00,WeatherDisplay:10.37,2013-02-24 00:52:00,
2013-02-23 18:57:00,24.1,20.5,29.88,WSW,243,2.8,4.6,86,0.00,OVC,,0.00,WeatherDisplay:10.37,2013-02-24 00:57:00,
2013-02-23 19:02:00,23.8,20.2,29.88,ESE,112,6.6,10.4,86,0.00,OVC,,0.00,WeatherDisplay:10.37,2013-02-24 01:02:00,
2013-02-23 19:07:00,23.9,20.6,29.88,SSW,204,2.3,4.7,87,0.00,OVC,,0.00,WeatherDisplay:10.37,2013-02-24 01:07:00,
2013-02-23 19:12:00,23.9,20.6,29.88,WSW,256,0.9,3.5,87,0.00,OVC,,0.00,WeatherDisplay:10.37,2013-02-24 01:12:00,
2013-02-23 19:17:00,24.0,20.7,29.88,WSW,242,4.0,5.8,87,0.00,OVC,,0.00,WeatherDisplay:10.37,2013-02-24 01:17:00,
2013-02-23 19:22:00,23.8,20.5,29.88,WSW,253,3.3,5.8,87,0.00,OVC,,0.00,WeatherDisplay:10.37,2013-02-24 01:22:00,
2013-02-23 19:27:00,24.0,20.7,29.88,SW,230,2.5,5.8,87,0.00,OVC,,0.00,WeatherDisplay:10.37,2013-02-24 01:27:00,
2013-02-23 19:32:00,23.8,20.5,29.88,WNW,287,4.9,8.1,87,0.00,OVC,,0.00,WeatherDisplay:10.37,2013-02-24 01:32:00,
2013-02-23 19:37:00,23.8,20.5,29.88,SW,222,4.4,6.9,87,0.00,OVC,,0.00,WeatherDisplay:10.37,2013-02-24 01:37:00,
2013-02-23 19:42:00,23.6,20.3,29.88,West,264,4.2,8.1,87,0.00,OVC,,0.00,WeatherDisplay:10.37,2013-02-24 01:42:00,
2013-02-23 19:47:00,23.6,20.3,29.88,WSW,247,4.9,6.9,87,0.00,OVC,,0.00,WeatherDisplay:10.37,2013-02-24 01:47:00,
2013-02-23 19:52:00,23.5,20.2,29.88,SW,232,4.5,8.1,87,0.00,OVC,,0.00,WeatherDisplay:10.37,2013-02-24 01:52:00,
2013-02-23 19:57:00,23.6,20.3,29.89,WSW,249,6.7,10.4,87,0.00,OVC,,0.00,WeatherDisplay:10.37,2013-02-24 01:57:00,
2013-02-23 20:02:00,23.6,20.3,29.89,SSW,204,4.0,7.6,87,0.00,OVC,,0.00,WeatherDisplay:10.37,2013-02-24 02:02:00,
2013-02-23 20:07:00,23.6,20.6,29.89,SW,232,2.3,3.5,88,0.00,OVC,,0.00,WeatherDisplay:10.37,2013-02-24 02:07:00,
2013-02-23 20:12:00,23.6,20.6,29.89,WSW,254,1.3,2.4,88,0.00,OVC,,0.00,WeatherDisplay:10.37,2013-02-24 02:12:00,
2013-02-23 20:17:00,23.6,20.6,29.89,West,271,4.5,6.9,88,0.00,OVC,,0.00,WeatherDisplay:10.37,2013-02-24 02:17:00,
2013-02-23 20:22:00,23.6,20.6,29.89,SW,230,3.8,9.2,88,0.00,OVC,,0.00,WeatherDisplay:10.37,2013-02-24 02:22:00,
2013-02-23 20:27:00,23.2,20.2,29.89,South,191,4.2,9.2,88,0.00,OVC,,0.00,WeatherDisplay:10.37,2013-02-24 02:27:00,
2013-02-23 20:32:00,23.2,20.2,29.89,SW,232,5.1,5.1,88,0.00,OVC,,0.00,WeatherDisplay:10.37,2013-02-24 02:32:00,
2013-02-23 20:37:00,23.3,20.3,29.89,SW,216,0.8,6.9,88,0.00,OVC,,0.00,WeatherDisplay:10.37,2013-02-24 02:37:00,
2013-02-23 20:42:00,23.1,20.1,29.89,SW,222,5.4,9.2,88,0.00,OVC,,0.00,WeatherDisplay:10.37,2013-02-24 02:42:00,
2013-02-23 20:47:00,23.1,20.1,29.89,SW,220,4.4,8.1,88,0.00,OVC,,0.00,WeatherDisplay:10.37,2013-02-24 02:47:00,
2013-02-23 20:52:00,23.2,20.2,29.89,SW,226,3.4,6.9,88,0.00,OVC,,0.00,WeatherDisplay:10.37,2013-02-24 02:52:00,
2013-02-23 20:57:00,23.1,20.1,29.89,SW,226,4.7,5.8,88,0.00,OVC,,0.00,WeatherDisplay:10.37,2013-02-24 02:57:00,
2013-02-23 21:02:00,23.1,20.3,29.89,WSW,244,5.8,6.9,89,0.00,OVC,,0.00,WeatherDisplay:10.37,2013-02-24 03:02:00,
2013-02-23 21:07:00,22.9,20.1,29.89,WNW,283,4.4,6.9,89,0.00,OVC,,0.00,WeatherDisplay:10.37,2013-02-24 03:07:00,
2013-02-23 21:12:00,22.9,20.1,29.89,West,259,5.5,9.2,89,0.00,OVC,,0.00,WeatherDisplay:10.37,2013-02-24 03:12:00,
2013-02-23 21:17:00,23.0,20.2,29.89,WNW,290,5.1,8.1,89,0.00,OVC,,0.00,WeatherDisplay:10.37,2013-02-24 03:17:00,
2013-02-23 21:22:00,23.0,20.2,29.89,SSW,213,4.8,7.6,89,0.00,OVC,,0.00,WeatherDisplay:10.37,2013-02-24 03:22:00,
2013-02-23 21:27:00,23.1,20.3,29.89,West,260,3.7,8.1,89,0.00,OVC,,0.00,WeatherDisplay:10.37,2013-02-24 03:27:00,
2013-02-23 21:32:00,23.0,20.2,29.89,West,280,1.6,4.6,89,0.00,OVC,,0.00,WeatherDisplay:10.37,2013-02-24 03:32:00,
2013-02-23 21:37:00,23.0,20.2,29.90,SW,218,5.0,8.1,89,0.00,OVC,,0.00,WeatherDisplay:10.37,2013-02-24 03:37:00,
2013-02-23 21:42:00,23.2,20.4,29.90,SW,232,1.8,2.5,89,0.00,OVC,,0.00,WeatherDisplay:10.37,2013-02-24 03:42:00,
2013-02-23 21:47:00,23.1,20.3,29.89,WSW,252,3.7,8.1,89,0.00,OVC,,0.00,WeatherDisplay:10.37,2013-02-24 03:47:00,
2013-02-23 21:52:00,23.1,20.3,29.89,WSW,242,4.5,5.8,89,0.00,OVC,,0.00,WeatherDisplay:10.37,2013-02-24 03:52:00,
2013-02-23 21:57:00,23.0,20.2,29.89,West,278,3.5,8.1,89,0.00,OVC,,0.00,WeatherDisplay:10.37,2013-02-24 03:57:00,
2013-02-23 22:02:00,22.8,20.0,29.89,WNW,294,6.0,8.1,89,0.00,OVC,,0.00,WeatherDisplay:10.37,2013-02-24 04:02:00,
2013-02-23 22:07:00,22.9,20.1,29.89,WNW,301,5.3,7.6,89,0.00,OVC,,0.00,WeatherDisplay:10.37,2013-02-24 04:07:00,
2013-02-23 22:12:00,22.8,20.0,29.89,West,267,3.9,6.9,89,0.00,OVC,,0.00,WeatherDisplay:10.37,2013-02-24 04:12:00,
2013-02-23 22:17:00,22.9,20.1,29.89,WSW,252,2.6,5.8,89,0.00,OVC,,0.00,WeatherDisplay:10.37,2013-02-24 04:17:00,
2013-02-23 22:22:00,22.9,20.1,29.89,SSE,147,0.0,2.3,89,0.00,OVC,,0.00,WeatherDisplay:10.37,2013-02-24 04:22:00,
2013-02-23 22:27:00,22.8,20.0,29.89,SW,230,0.2,4.5,89,0.00,OVC,,0.00,WeatherDisplay:10.37,2013-02-24 04:27:00,
2013-02-23 22:32:00,22.7,20.2,29.89,SW,216,0.0,2.3,90,0.00,OVC,,0.00,WeatherDisplay:10.37,2013-02-24 04:32:00,
2013-02-23 22:37:00,22.6,20.1,29.89,WSW,254,2.6,5.0,90,0.00,OVC,,0.00,WeatherDisplay:10.37,2013-02-24 04:37:00,
2013-02-23 22:42:00,22.6,20.1,29.89,North,355,1.3,3.2,90,0.00,OVC,,0.00,WeatherDisplay:10.37,2013-02-24 04:42:00,
2013-02-23 22:47:00,22.2,19.7,29.89,NW,318,0.0,1.1,90,0.00,OVC,,0.00,WeatherDisplay:10.37,2013-02-24 04:47:00,
2013-02-23 22:52:00,22.3,19.8,29.89,NW,318,0.0,0.0,90,0.00,OVC,,0.00,WeatherDisplay:10.37,2013-02-24 04:52:00,
2013-02-23 22:57:00,22.1,19.6,29.89,West,280,0.0,0.0,90,0.00,OVC,,0.00,WeatherDisplay:10.37,2013-02-24 04:57:00,
2013-02-23 23:00:00,21.9,19.4,29.89,WNW,292,3.1,4.6,90,0.00,OVC,,0.00,WeatherDisplay:10.37,2013-02-24 05:00:00,
2013-02-23 23:05:00,21.8,19.3,29.89,SW,235,1.1,2.3,90,0.00,OVC,,0.00,WeatherDisplay:10.37,2013-02-24 05:05:00,
2013-02-23 23:10:00,21.7,19.2,29.89,WSW,246,1.4,2.3,90,0.00,OVC,,0.00,WeatherDisplay:10.37,2013-02-24 05:10:00,
2013-02-23 23:15:00,21.4,19.2,29.89,SSW,206,0.0,0.0,91,0.00,OVC,,0.00,WeatherDisplay:10.37,2013-02-24 05:15:00,
2013-02-23 23:20:00,21.2,19.0,29.90,West,266,0.0,0.3,91,0.00,OVC,,0.00,WeatherDisplay:10.37,2013-02-24 05:20:00,
2013-02-23 23:25:00,21.1,18.9,29.90,WSW,239,1.4,1.7,91,0.00,OVC,,0.00,WeatherDisplay:10.37,2013-02-24 05:25:00,
2013-02-23 23:30:00,20.9,18.7,29.90,SW,216,0.0,0.0,91,0.00,OVC,,0.00,WeatherDisplay:10.37,2013-02-24 05:30:00,
2013-02-23 23:35:00,20.9,18.7,29.90,NNW,333,0.6,2.3,91,0.00,OVC,,0.00,WeatherDisplay:10.37,2013-02-24 05:35:00,
2013-02-23 23:40:00,20.6,18.4,29.90,WNW,297,0.0,2.3,91,0.00,OVC,,0.00,WeatherDisplay:10.37,2013-02-24 05:40:00,
2013-02-23 23:45:00,20.4,18.4,29.90,WNW,297,0.0,0.0,92,0.00,OVC,,0.00,WeatherDisplay:10.37,2013-02-24 05:45:00,
2013-02-23 23:50:00,20.1,18.1,29.90,WNW,297,0.0,0.0,92,0.00,OVC,,0.00,WeatherDisplay:10.37,2013-02-24 05:50:00,
2013-02-23 23:55:00,19.9,18.0,29.90,WNW,297,0.0,0.0,92,0.00,OVC,,0.00,WeatherDisplay:10.37,2013-02-24 05:55:00,